sat.trackr.live / text

‹ back to catalog

STARLINK-3375

NORAD 51114 · 2022-005L

PAYLOAD ACTIVE UNKNOWN

§ Identity

Operator
Country
US
Launch date
2022-01-19
Launch site
AFETR
Launch vehicle
Mass (kg)
RCS (m²)

Purposes: comms

External: N2YO · Heavens-Above · Gunter

§ Orbital elements

Epoch: 2026-05-24T21:10:47.184384Z

Period
95.44 min
Inclination
53.2127°
Eccentricity
0.0001528
Mean motion
15.08833891 rev/d
Perigee alt
538.7 km
Apogee alt
540.8 km
Semi-major
6,917.9 km
B*
6.6937e-5
RAAN
307.0770°
Arg perigee
94.0056°
Mean anomaly
266.1111°
Rev number
24,038

§ Raw data

STARLINK-33751 51114U 22005L   26144.88249056  .00000777  00000+0  66937-4 0  99952 51114  53.2127 307.0770 0001528  94.0056 266.1111 15.08833891240389

JSON: /api/v1/satellites/51114 · /tle

For live sub-satellite position, see the globe view (requires WebGL).

§ Visibility from observer

Set your observer location to see the next 7 days of passes ≥ 10°. The values pass through the URL so the page stays shareable.

No JS? Fill the form by hand. The geolocation button needs JavaScript.